Regional Weather Roundup
Issued by NWS

Home | Current Version | Previous Version | Graphics & Text | Print | Product List | Glossary On
Versions: 1 2 3 4 5 6 7 8 9 10 11 12 13 14 15 16 17 18 19 20 21 22 23 24 25 26 27 28 29 30 31 32 33 34 35 36 37 38 39 40 41 42 43 44 45 46 47 48 49 50
318
ASUS43 KMKX 171211
RWRWI

WISCONSIN REGIONAL WEATHER ROUNDUP
NATIONAL WEATHER SERVICE MILWAUKEE/SULLIVAN WI
700 AM CDT TUE OCT 17 2017

NOTE: "FAIR" INDICATES FEW OR NO CLOUDS BELOW 12,000 FEET WITH NO
SIGNIFICANT WEATHER AND/OR OBSTRUCTIONS TO VISIBILITY.

WIZ001-002-006>008-014>016-023>028-171300-
NORTHWEST WISCONSIN

CITY           SKY/WX    TMP DP  RH WIND       PRES   REMARKS
SUPERIOR ARPT  CLOUDY    43  39  85 SW7       29.96S
6HR MIN TEMP:  42; 6HR MAX TEMP:  51;

ASHLAND        CLOUDY    46  38  73 SW9       29.96R
6HR MIN TEMP:  46; 6HR MAX TEMP:  54;

HAYWARD        CLOUDY    34  31  88 CALM      29.99R
6HR MIN TEMP:  34; 6HR MAX TEMP:  53;

SIREN          CLOUDY    37  35  95 CALM      30.00R
6HR MIN TEMP:  36; 6HR MAX TEMP:  54;

CUMBERLAND     CLOUDY    36  34  93 CALM      30.00R
RICE LAKE      CLOUDY    36  36  99 CALM      30.02R
6HR MIN TEMP:  35; 6HR MAX TEMP:  44;

CHETEK         CLOUDY    35  35 100 CALM      30.01R
6HR MIN TEMP:  34; 6HR MAX TEMP:  46;

LADYSMITH      CLOUDY    37  36  95 CALM      30.02R
6HR MIN TEMP:  35; 6HR MAX TEMP:  47;

EAU CLAIRE     CLOUDY    40  39  97 SW5       30.01R
6HR MIN TEMP:  39; 6HR MAX TEMP:  47;

MENOMONIE      CLEAR     40  38  94 E3        30.01R
6HR MIN TEMP:  39; 6HR MAX TEMP:  52;

NEW RICHMOND   CLEAR     39  38  94 CALM      30.02R
6HR MIN TEMP:  39; 6HR MAX TEMP:  50;

OSCEOLA        CLEAR     37  37 100 E3        30.04R
6HR MIN TEMP:  36; 6HR MAX TEMP:  45;

$$

WIZ003>005-009-010-017-018-171300-
NORTH CENTRAL WISCONSIN

CITY           SKY/WX    TMP DP  RH WIND       PRES   REMARKS
MANITOWISH WTR CLOUDY    33  33 100 CALM      29.97S
6HR MIN TEMP:  33; 6HR MAX TEMP:  48;

ARBOR VITAE    CLOUDY    37  35  94 CALM      29.98S
6HR MIN TEMP:  37; 6HR MAX TEMP:  47;

WOODRUFF       CLOUDY    37  35  94 CALM      29.98S
6HR MIN TEMP:  37; 6HR MAX TEMP:  47;

RHINELANDER    CLOUDY    39  36  89 W7        29.99R WCI  34
6HR MIN TEMP:  38; 6HR MAX TEMP:  48;

EAGLE RIVER    CLOUDY    37  37  99 CALM      29.97R
6HR MIN TEMP:  36; 6HR MAX TEMP:  49;

LAND O LAKES   CLOUDY    32  32 100 CALM      29.99R
6HR MIN TEMP:  32; 6HR MAX TEMP:  46;

PHILLIPS       PTCLDY    36  36 100 CALM      29.99R
6HR MIN TEMP:  34; 6HR MAX TEMP:  49;

TOMAHAWK       CLOUDY    33  32  95 CALM      30.00S
6HR MIN TEMP:  33; 6HR MAX TEMP:  45;

MEDFORD        CLOUDY    42  36  80 SW5       30.01R
6HR MIN TEMP:  42; 6HR MAX TEMP:  48;

MERRILL        CLOUDY    32  32  99 CALM      30.01R
6HR MIN TEMP:  32; 6HR MAX TEMP:  48;

$$

WIZ029-030-035-036-043>047-171300-
CENTRAL WISCONSIN

CITY           SKY/WX    TMP DP  RH WIND       PRES   REMARKS
WAUSAU         CLEAR     45  38  76 S8        29.99S
6HR MIN TEMP:  43; 6HR MAX TEMP:  48;

MOSINEE        CLEAR     41  37  87 CALM      30.02R
MARSHFIELD     CLEAR     45  37  73 SW5       30.01R
6HR MIN TEMP:  42; 6HR MAX TEMP:  46;

STEVENS POINT  CLEAR     36  36 100 CALM      30.03R
6HR MIN TEMP:  36; 6HR MAX TEMP:  45;

WAUPACA        CLEAR     44  39  82 S3        30.03R
6HR MIN TEMP:  44; 6HR MAX TEMP:  49;

WAUTOMA        CLEAR     36  35  96 CALM      30.04S
6HR MIN TEMP:  35; 6HR MAX TEMP:  38;

WISC RAPIDS    CLEAR     45  39  79 SW7       30.04R
6HR MIN TEMP:  44; 6HR MAX TEMP:  48;

CAMP DOUGLAS   PTCLDY    50  39  66 W9        30.04R
$$

WIZ011>013-019>022-031-037>040-048>050-171300-
NORTHEAST WISCONSIN

CITY           SKY/WX    TMP DP  RH WIND       PRES   REMARKS
ANTIGO         CLOUDY    39  36  88 CALM      30.01R
6HR MIN TEMP:  38; 6HR MAX TEMP:  47;

SHAWANO        PTCLDY    46  38  76 CALM      30.00S
6HR MIN TEMP:  46; 6HR MAX TEMP:  50;

OCONTO         PTCLDY    47  38  71 SW6       29.99S
6HR MIN TEMP:  46; 6HR MAX TEMP:  50;

STURGEON BAY   PTCLDY    52  41  66 SW13      29.99R
6HR MIN TEMP:  50; 6HR MAX TEMP:  56;

GREEN BAY      CLEAR     47  41  80 SW6       30.02R
6HR MIN TEMP:  47; 6HR MAX TEMP:  52;

MANITOWOC      CLEAR     54  39  57 W14G21    30.02S
6HR MIN TEMP:  44; 6HR MAX TEMP:  55;

APPLETON       PTCLDY    48  36  61 SW12      30.01S
CLINTONVILLE   CLEAR     43  36  75 S5        30.01S
OSHKOSH        CLEAR     48  39  71 SW9       30.03S
6HR MIN TEMP:  48; 6HR MAX TEMP:  50;

$$

WIZ032>034-041-042-053>061-171300-
SOUTHWEST WISCONSIN

CITY           SKY/WX    TMP DP  RH WIND       PRES   REMARKS
LA CROSSE      CLEAR     50  42  74 S6        30.05R
6HR MIN TEMP:  49; 6HR MAX TEMP:  55;

SPARTA         CLEAR     38  37  95 CALM      30.05S
6HR MIN TEMP:  38; 6HR MAX TEMP:  54;

VIROQUA        CLEAR     48  41  77 CALM      30.07R
6HR MIN TEMP:  48; 6HR MAX TEMP:  52;

BOSCOBEL       CLEAR     42  40  92 SW5       30.09S
6HR MIN TEMP:  40; 6HR MAX TEMP:  49;

PRAIRIE DU CHI CLEAR     52  39  62 S5        30.09S
6HR MIN TEMP:  50; 6HR MAX TEMP:  56;

PLATTEVILLE    CLEAR     47  41  81 S8        30.12S
6HR MIN TEMP:  46; 6HR MAX TEMP:  49;

$$

WIZ056-057-062-063-064-067-068-171300-
SOUTH CENTRAL WISCONSIN

CITY           SKY/WX    TMP DP  RH WIND       PRES   REMARKS
REEDSBURG      CLEAR     49  40  70 SW8       30.06S
6HR MIN TEMP:  49; 6HR MAX TEMP:  52;

BARABOO/DELLS  CLEAR     49  38  65 SW9       30.06R
6HR MIN TEMP:  49; 6HR MAX TEMP:  53;

LONE ROCK      CLEAR     43  39  86 CALM      30.09S
6HR MIN TEMP:  41; 6HR MAX TEMP:  53;

MINERAL POINT  CLEAR     46  41  81 S7        30.10F
MADISON        PTCLDY    52  40  63 SW13G20   30.08F
6HR MIN TEMP:  52; 6HR MAX TEMP:  53;

MIDDLETON      CLEAR     51  40  63 SW9       30.09S
6HR MIN TEMP:  51; 6HR MAX TEMP:  54;

WATERTOWN      CLEAR     48  41  77 SW9       30.09S
6HR MIN TEMP:  46; 6HR MAX TEMP:  49;

MONROE         CLEAR     45  37  76 SW16      30.12S
JANESVILLE     CLEAR     48  39  71 SW13      30.12F
$$

WIZ051-052-058>065-066-070>072-171300-
SOUTHEAST WISCONSIN

CITY           SKY/WX    TMP DP  RH WIND       PRES   REMARKS
MILWAUKEE      PTCLDY    51  39  63 SW13      30.10F
6HR MIN TEMP:  49; 6HR MAX TEMP:  51;

WAUKESHA       CLEAR     46  36  66 S7        30.11F
MILWAUKEE/TIMM CLEAR     50  36  57 SW12G17   30.10S
RACINE         CLEAR     52  39  61 SW14      30.12F
6HR MIN TEMP:  46; 6HR MAX TEMP:  52;

BURLINGTON     CLEAR     47  41  78 SW10      30.12F
6HR MIN TEMP:  38; 6HR MAX TEMP:  48;

KENOSHA        CLEAR     51  38  60 SW10      30.13F
6HR MIN TEMP:  46; 6HR MAX TEMP:  51;

FOND DU LAC    CLEAR     48  38  68 SW12      30.06R
6HR MIN TEMP:  48; 6HR MAX TEMP:  52;

SHEBOYGAN      CLEAR     51  41  68 SW9       30.05R
6HR MIN TEMP:  43; 6HR MAX TEMP:  53;

WEST BEND      CLEAR     50  36  57 SW12G22   30.07S
JUNEAU         CLEAR     45  38  77 S3        30.09R
6HR MIN TEMP:  45; 6HR MAX TEMP:  47;

$$

LSZ147-162-171300-
LAKE SUPERIOR

STATION/POSITION TIME  TEMP    WIND        PRES    WAVE
                       AIR SEA DIR/SP/G            HT/PER
                 (UTC) (F)     (DEG/KT/KT) (MB)    (FT/S)
W MID LAKE BUOY  1150   54 53              1012.7R   3/ 5
DEVILS ISLAND    1200   54     240/ 14/ 16 1013.9R
PORT WING        1040          150/  3/  5 1014.2R
SAXON HARBOR     1140   47     180/  6/  9 1013.9R
$$

LMZ867-665-643>646-171300-
LAKE MICHIGAN

STATION/POSITION TIME  TEMP    WIND        PRES    WAVE
                       AIR SE



USA.gov is the U.S. government's official web portal to all federal, state and local government web resources and services.